Location: Reutlingen
(48.4911°N, 9.2587°E)
Time: 02:05:11
(UTC+01:00)

ISS - Pass Details

Date: 08 January 2018
Orbit: 401 x 406 km, 51.6° (Epoch: 17 January)

Event Time Altitude Azimuth Distance (km) Brightness Sun altitude
Exits shadow 05:07:54 13° 68° (ENE) 1,310 -0.5 -29.8°
Drops below altitude 10° 05:08:18 10° 70° (ENE) 1,467 -0.2 -29.8°
Sets 05:10:26 0° 76° (ENE) 2,329 1.1 -29.4°
